Weather History for Lafayette, IN

Change the Weather History Date:

Monday, February 20, 2012

  Actual Average Record
Temperature  
Mean Temperature 32 °F 32 °F  
Max Temperature 44 °F 40 °F 65 °F (1983)
Min Temperature 20 °F 24 °F 2 °F (1968)
Degree Days  
Heating Degree Days 33 33  
Month to date heating degree days 629 712  
Since 1 July heating degree days 3429 4080  
Cooling Degree Days 0 0  
Month to date cooling degree days 0 0  
Year to date cooling degree days 0 0  
Moisture  
Dew Point 22 °F    
Average Humidity 64    
Maximum Humidity 88    
Minimum Humidity 40    
Precipitation  
Precipitation 0.00 in 0.06 in 1.91 in (1951)
Month to date precipitation 0.73 1.17  
Year to date precipitation 3.04 3.03  
Sea Level Pressure  
Sea Level Pressure 30.20 in    
Wind  
Wind Speed 7 mph (SE)    
Max Wind Speed 16 mph    
Max Gust Speed 20 mph    
Visibility 10 miles    
Events      
T = Trace of Precipitation, MM = Missing Value Source: NWS Daily Summary

Daily Weather History Graph

Daily Weather History Graph

Search for Another Location

Airport:

Trip Planner

Search our weather history database for the weather conditions in past years. The results will help you decide how hot, cold, wet, or windy it might be!

Date:

Astronomy

Feb. 20, 2012 Rise Set
Actual Time 7:35 AM EST 6:28 PM EST
Civil Twilight 7:07 AM EST 6:56 PM EST
Nautical Twilight 6:35 AM EST 7:27 PM EST
Astronomical Twilight 6:04 AM EST 7:59 PM EST
Moon 6:31 AM EST (2/20) 5:32 PM EST (2/20)
Length of Visible Light 11h 48m
Length of Day
10h 53m
Waning Crescent, 2% of the Moon is Illuminated
Feb 20
Waning Crescent
Feb 21
New
Feb 29
First Quarter
Mar 8
Full
Mar 14
Last Quarter

Hourly Weather History & Observations

Time (EST) Temp. Windchill Dew Point Humidity Pressure Visibility Wind Dir Wind Speed Gust Speed Precip Events Conditions
12:54 AM 27.0 °F 23.0 °F 18.0 °F 69% 30.22 in 10.0 mi NE 3.5 mph - N/A   Clear
1:54 AM 25.0 °F - 19.0 °F 78% 30.23 in 10.0 mi Calm Calm - N/A   Clear
2:54 AM 26.1 °F 21.9 °F 19.0 °F 75% 30.23 in 10.0 mi ENE 3.5 mph - N/A   Clear
3:54 AM 25.0 °F 16.3 °F 19.0 °F 78% 30.23 in 10.0 mi ENE 8.1 mph - N/A   Clear
4:54 AM 24.1 °F - 18.0 °F 77% 30.27 in 10.0 mi Calm Calm - N/A   Clear
5:54 AM 23.0 °F 15.8 °F 19.0 °F 85% 30.32 in 10.0 mi West 5.8 mph - N/A   Clear
7:54 AM 21.0 °F - 18.0 °F 88% 30.34 in 9.0 mi Calm Calm - N/A   Clear
9:54 AM 30.9 °F 24.3 °F 23.0 °F 72% 30.33 in 10.0 mi SE 6.9 mph - N/A   Clear
10:54 AM 35.1 °F 27.4 °F 23.0 °F 61% 30.32 in 10.0 mi SE 10.4 mph - N/A   Clear
11:54 AM 37.9 °F 30.9 °F 23.0 °F 55% 30.30 in 10.0 mi SSE 10.4 mph - N/A   Clear
12:54 PM 39.9 °F 33.9 °F 21.9 °F 49% 30.30 in 10.0 mi SE 9.2 mph - N/A   Clear
1:54 PM 42.1 °F 35.2 °F 23.0 °F 47% 30.25 in 10.0 mi ESE 12.7 mph - N/A   Clear
3:54 PM 44.1 °F 38.6 °F 21.9 °F 42% 30.19 in 10.0 mi SE 10.4 mph - N/A   Clear
4:54 PM 43.0 °F 37.2 °F 23.0 °F 45% 30.17 in 10.0 mi SSE 10.4 mph - N/A   Clear
5:54 PM 42.1 °F 36.1 °F 23.0 °F 47% 30.14 in 10.0 mi SE 10.4 mph 17.3 mph N/A   Clear
6:54 PM 39.0 °F 33.4 °F 23.0 °F 53% 30.12 in 10.0 mi ESE 8.1 mph - N/A   Clear
7:54 PM 37.0 °F 31.0 °F 24.1 °F 59% 30.12 in 10.0 mi ESE 8.1 mph - N/A   Clear
8:54 PM 37.9 °F 30.9 °F 23.0 °F 55% 30.09 in 10.0 mi SE 10.4 mph - N/A   Clear
9:54 PM 37.0 °F 31.0 °F 23.0 °F 57% 30.06 in 10.0 mi SE 8.1 mph - N/A   Clear
10:54 PM 37.0 °F 31.0 °F 24.1 °F 59% 30.01 in 10.0 mi SE 8.1 mph - N/A   Clear
11:54 PM 39.9 °F 32.5 °F 23.0 °F 51% 29.96 in 10.0 mi SSE 12.7 mph 19.6 mph N/A   Clear